Weather History for KLFT - April, 2014

Change the Weather History Date:

Sunday, April 13, 2014

  Actual Average Record
Temperature  
Mean Temperature 74 °F 68 °F  
Max Temperature 79 °F 79 °F 89 °F (1954)
Min Temperature 69 °F 58 °F 32 °F (1940)
Degree Days  
Heating Degree Days 0 1  
Month to date heating degree days 19 28  
Since 1 July heating degree days 1914 1408  
Cooling Degree Days 9 5  
Month to date cooling degree days 43 53  
Year to date cooling degree days 81 148  
Growing Degree Days 24 (Base 50)    
Moisture  
Dew Point 67 °F    
Average Humidity 78    
Maximum Humidity 93    
Minimum Humidity 62    
Precipitation  
Precipitation 0.03 in 0.13 in 2.58 in (1980)
Month to date precipitation 1.09 1.56  
Year to date precipitation 11.19 15.47  
Snow  
Snow 0.00 in 0.00 in 0.00 in ()
Month to date snowfall 0.0 0.0  
Since 1 July snowfall 0.8 T  
Snow Depth 0.00 in    
Sea Level Pressure  
Sea Level Pressure 29.93 in    
Wind  
Wind Speed 12 mph (SSE)    
Max Wind Speed 22 mph    
Max Gust Speed 31 mph    
Visibility 9 miles    
Events Rain    
T = Trace of Precipitation, MM = Missing Value Source: NWS Daily Summary

Daily Weather History Graph

Daily Weather History Graph

Search for Another Location

Airport or City:

Trip Planner

Search our weather history database for the weather conditions in past years. The results will help you decide how hot, cold, wet, or windy it might be!

Date:

Astronomy

Apr. 13, 2014 Rise Set
Actual Time 6:43 AM CDT 7:34 PM CDT
Civil Twilight 6:18 AM CDT 7:58 PM CDT
Nautical Twilight 5:49 AM CDT 8:27 PM CDT
Astronomical Twilight 5:20 AM CDT 8:57 PM CDT
Moon 6:17 PM CDT (4/13) 5:34 AM CDT (4/13)
Length of Visible Light 13h 40m
Length of Day
12h 51m
Waxing Gibbous, 97% of the Moon is Illuminated
Apr 13
Waxing Gibbous
Apr 15
Full
Apr 22
Last Quarter
Apr 29
New
May 6
First Quarter

Hourly Weather History & Observations

Time (CDT) Temp. Dew Point Humidity Pressure Visibility Wind Dir Wind Speed Gust Speed Precip Events Conditions
12:53 AM 70.0 °F 66.9 °F 90% 30.00 in 10.0 mi SSE 9.2 mph 18.4 mph N/A   Overcast
1:53 AM 70.0 °F 66.9 °F 90% 29.99 in 10.0 mi South 9.2 mph - N/A   Overcast
2:53 AM 70.0 °F 66.9 °F 90% 29.97 in 10.0 mi SSE 8.1 mph - N/A   Mostly Cloudy
3:10 AM 69.1 °F 66.9 °F 93% 29.96 in 9.0 mi SSE 8.1 mph - N/A   Mostly Cloudy
3:39 AM 69.1 °F 66.9 °F 93% 29.95 in 9.0 mi SSE 6.9 mph - N/A   Scattered Clouds
3:53 AM 69.1 °F 66.9 °F 93% 29.95 in 8.0 mi SSE 6.9 mph - N/A   Scattered Clouds
4:01 AM 69.1 °F 66.9 °F 93% 29.95 in 8.0 mi SSE 6.9 mph - N/A   Mostly Cloudy
4:53 AM 69.1 °F 66.9 °F 93% 29.94 in 8.0 mi SSE 9.2 mph - N/A   Mostly Cloudy
5:28 AM 69.1 °F 66.9 °F 93% 29.94 in 9.0 mi SSE 8.1 mph - N/A   Mostly Cloudy
5:53 AM 69.1 °F 66.9 °F 93% 29.94 in 9.0 mi SSE 6.9 mph - N/A   Mostly Cloudy
6:08 AM 69.1 °F 66.9 °F 93% 29.94 in 9.0 mi Variable 5.8 mph - N/A   Scattered Clouds
6:53 AM 69.1 °F 66.9 °F 93% 29.94 in 6.0 mi SSE 6.9 mph - N/A   Clear
7:07 AM 69.1 °F 66.9 °F 93% 29.95 in 6.0 mi SSE 5.8 mph - N/A   Partly Cloudy
7:15 AM 69.1 °F 68.0 °F 96% 29.95 in 6.0 mi SSE 5.8 mph - N/A   Mostly Cloudy
7:53 AM 71.1 °F 68.0 °F 90% 29.97 in 8.0 mi SSE 9.2 mph - N/A   Scattered Clouds
8:33 AM 72.0 °F 68.0 °F 87% 29.97 in 10.0 mi South 10.4 mph - N/A   Mostly Cloudy
8:53 AM 72.0 °F 69.1 °F 91% 29.98 in 10.0 mi South 11.5 mph 17.3 mph N/A   Mostly Cloudy
9:15 AM 73.9 °F 68.0 °F 82% 29.98 in 10.0 mi South 12.7 mph 21.9 mph N/A   Mostly Cloudy
9:53 AM 75.0 °F 68.0 °F 79% 29.99 in 10.0 mi South 13.8 mph 20.7 mph N/A   Mostly Cloudy
10:31 AM 77.0 °F 68.0 °F 74% 30.00 in 10.0 mi SSE 12.7 mph 21.9 mph N/A   Mostly Cloudy
10:53 AM 77.0 °F 66.9 °F 71% 29.99 in 10.0 mi South 15.0 mph 23.0 mph N/A   Mostly Cloudy
11:53 AM 78.1 °F 66.0 °F 66% 29.98 in 10.0 mi South 13.8 mph 21.9 mph N/A   Scattered Clouds
12:53 PM 79.0 °F 66.9 °F 66% 29.96 in 10.0 mi South 15.0 mph 27.6 mph N/A   Scattered Clouds
1:53 PM 79.0 °F 64.9 °F 62% 29.94 in 10.0 mi SSE 18.4 mph 28.8 mph N/A   Partly Cloudy
2:53 PM 78.1 °F 64.0 °F 62% 29.93 in 10.0 mi South 17.3 mph 27.6 mph N/A   Partly Cloudy
3:53 PM 78.1 °F 64.0 °F 62% 29.89 in 10.0 mi South 15.0 mph 26.5 mph N/A   Scattered Clouds
4:53 PM 77.0 °F 64.0 °F 64% 29.88 in 10.0 mi South 17.3 mph 27.6 mph N/A   Mostly Cloudy
5:53 PM 77.0 °F 64.9 °F 66% 29.87 in 10.0 mi SSE 12.7 mph 26.5 mph N/A   Mostly Cloudy
6:53 PM 75.2 °F 64.4 °F 69% 29.85 in 10.0 mi SSE 10.4 mph 20.7 mph N/A   Overcast
7:53 PM 73.0 °F 64.0 °F 73% 29.86 in 10.0 mi Variable 6.9 mph 20.7 mph 0.01 in Rain Light Rain
8:53 PM 71.1 °F 66.9 °F 87% 29.86 in 10.0 mi South 4.6 mph - 0.01 in   Overcast
9:23 PM 72.0 °F 66.9 °F 84% 29.86 in 10.0 mi SSE 8.1 mph - 0.01 in   Overcast
9:53 PM 73.0 °F 66.9 °F 81% 29.86 in 10.0 mi South 9.2 mph - 0.01 in   Overcast
10:44 PM 73.0 °F 66.9 °F 81% 29.84 in 10.0 mi SSE 13.8 mph 23.0 mph N/A   Mostly Cloudy
10:53 PM 73.0 °F 68.0 °F 84% 29.84 in 10.0 mi SSE 16.1 mph 23.0 mph N/A   Mostly Cloudy
11:31 PM 73.9 °F 68.0 °F 82% 29.80 in 10.0 mi South 15.0 mph 28.8 mph N/A   Overcast
11:53 PM 73.9 °F 68.0 °F 82% 29.81 in 10.0 mi South 13.8 mph 27.6 mph N/A   Overcast